Location: Utrecht
(52.0907°N, 5.1214°E)
Time: 17:59:23
(UTC+02:00)

NANOSAT C BR1 - Pass Details

Date: 29 June 2022
Orbit: 584 x 599 km, 98.0° (Epoch: 14 August)

Event Time Altitude Azimuth Distance (km) Brightness Sun altitude
Rises 04:28:42 0° 10° (N) 2,848 ? -6.4°
Reaches altitude 10° 04:30:55 10° 5° (N) 1,944 ? -6.2°
Maximum altitude 04:34:59 50° 291° (WNW) 769 ? -5.8°
Drops below altitude 10° 04:39:03 10° 216° (SW) 1,937 ? -5.4°
Enters shadow 04:39:46 - 214° (SW) 2,223 ? -5.4°
